SL-12 DEB, 43541

Orbit data source: Space-Track

SL-12 DEB, 43541 is space debris in HEO originally from a launch on Fri, 26 Oct 2007 UTC launched from the Tyuratam Missile And Space Complex (TTMTR). Debris objects in space refer to the collection of defunct objects orbiting the Earth. Examples of debris include non-operational satellites, rocket bodies, and fragments generated from explosions, collisions, or faulty payload assembly.

Loading next visibility...
Identifier
43541, 2007-052AH
Orbit
HEO
Country
Flag of CISCIS
Related business
Manufacturer
RKKE
Mission
Spacecraft
Bus & Motor
Unknown
Mass
Unknown
Launch date (UTC)
2007-10-26 (18 years ago)
Launch vehicle
Unknown
Launch site
Tyuratam Missile And Space Complex (TTMTR)
Object type
Payload
Rocket body
Debris
Shape & HBR
Unknown shape, 0.7 m
Radar Cross Section
Medium (>0.1 m² and <1 m²)

Expand to show TLE details & history
Last TLE update: 6 days ago

TLE from 6 days ago
0 SL-12 DEB
1 43541U 07052AH  25285.43604435  .00001027  00000-0  40365-2 0  9992
2 43541  65.2223   5.6607 5685255 222.5061  75.8147  4.25942171113098
Epoch: 2025-10-12T10:27Z
TLE epoch observation values (Epoch: 2025-10-12T10:27:54.231Z)
Latitude
-0.00005°
Longitude
-172.55501°
Altitude
12,371.047 km
Speed
4.211 km/s
True Right ascension
00h 22m 41s
True Declination
0° 00' 00"
Sunlit
Object was in full shadow at epoch
Visualization orbit readout
Latitude
Unknown
Longitude
Unknown
Altitude
Unknown
Speed
Unknown
Apparent Right ascension
Unknown
Apparent Declination
Unknown
Sunlit
N/A
Visualization observer readout
Local Sidereal Time
09:23:45
Azimuth
Unknown
Elevation
Unknown
Doppler factor
Unknown
Orbital elements
Apogee altitude
18,835.093 km
Perigee altitude
557.591 km
Semi-major axis
16,074.479 km
Eccentricity
0.56853
Inclination
65.2223°
RAAN
5.6607°
Arg. of periapsis
222.5061°
True anomaly
137.55691°
Mean anomaly
75.8147°
Eccentric anomaly
106.97039°
Mean motion
1.06497 °/min
Orbital period
338.04 mins
BSTAR
0.0040365
Loading maneuver chart data...
Computing Atmospheric mass density...
Loading historical data...
Loading historical data...
Loading historical data...
Loading historical data...
Loading historical data...
Loading historical data...
Loading historical data...

Documentation

Showing up to 5 results
|